Weather in Pribrezhny

Russia / Samara Oblast     53°29′03″N   49°51′09″E
temp.,
°C
wind,
m/s
gust,
m/s
humid.,
%
clouds,
%
prec.,
mm/h
press.,
hPa
HPBL,
m
20 june, sun
sun2001:00+16w24912 0.0 102365
04:00+15w24910 0.0 102363
07:00+19wnw36760 0.0 1022216
10:00+24wnw34623 0.0 1022522
13:00+27wnw44515 0.0 10221157
16:00+28nnw44480 0.0 10221374
19:00+26nnw24640 0.0 1020395
22:00+21n11820 0.0 102111
21 june, mon
mon2101:00+20ne00870 0.0 102211
04:00+19wnw00900 0.0 102211
07:00+23sse11760 0.0 1023163
10:00+25ssw22710 1.6 1023693
13:00+28sw23533 0.6 10231744
16:00+29wsw22433 0.8 10222115
19:00+27w235712 0.0 1021256
22:00+22sw11645 0.0 102211
22 june, tue
tue2201:00+21w11692 0.0 102211
04:00+19wsw11777 0.0 102211
07:00+23w11682 0.0 1023124
10:00+28wnw22512 0.0 10231088
13:00+30wnw32415 0.0 10231990
16:00+31nw333944 0.0 10222076
19:00+28n23580 0.0 1021473
22:00+22ese00720 0.0 102211
23 june, wed
wed2301:00+21wnw01753 0.0 102211
04:00+20nw11810 0.0 102211
07:00+24nnw12660 0.0 1022139
10:00+29nw33510 0.0 10221068
13:00+31nw34420 0.0 10212055
16:00+31nnw33380 0.0 10212085
19:00+28nnw24550 0.0 1020390
22:00+23nnw11680 0.0 102111
24 june, thu
thu2401:00+21wnw11710 0.0 102011
04:00+21w22738 0.0 102013
07:00+23w237218 0.0 1020146
10:00+29nw34510 0.0 1019932
13:00+31nw44422 0.0 10192039
16:00+31nnw44410 0.0 10182264
19:00+29nw24560 0.0 1017447
22:00+24w34722 0.0 101766